Theta_e
320 319 321 320 323 324 325 331 322 323 327 319 317 320 316 317 318 316 317 317 317 318 316 319 321 317 320 320 321 323 322 328 327 320 320 326 332 334 338 336 337 340 339 341 341 341 340 340 340 340 340 337 334 331 331 336 338 338 339 339 338 337 338 339 339 339 339 338 338 337 337 336 336 336 336 335 334 334 333 331 328 326 326 324 321 317 310 303 301 301 301 303 305 313 324 325 326
320 320 321 321 323 322 326 331 327 326 327 316 314 320 317 317 318 317 320 318 319 320 319 322 326 323 325 325 322 325 323 326 323 318 325 329 332 334 335 335 336 340 341 341 341 341 341 340 340 339 339 336 333 331 331 332 335 337 337 338 337 336 338 339 339 339 339 339 338 337 337 337 336 336 337 337 336 335 334 330 327 328 326 322 320 317 309 302 301 301 301 308 309 312 324 329 330
320 321 321 323 322 324 334 330 323 327 326 317 318 325 317 315 319 320 321 318 318 320 319 318 323 321 322 326 321 323 322 327 329 325 328 329 332 335 336 335 336 340 340 341 342 342 341 340 339 338 338 336 333 332 332 331 332 333 335 336 336 337 339 339 339 338 338 338 338 337 337 336 336 336 336 336 336 336 333 330 328 327 324 320 320 316 308 301 301 301 301 311 317 319 327 330 330
319 321 321 324 323 331 351 336 326 330 324 320 321 324 322 320 321 320 319 318 318 316 316 317 321 315 317 325 319 320 323 326 328 329 331 327 331 336 336 337 337 340 340 341 342 342 341 341 339 338 338 337 336 333 333 333 333 332 333 335 337 338 338 339 339 338 338 337 338 337 337 336 335 336 336 336 336 335 332 329 329 326 322 320 319 315 307 301 301 300 305 315 321 325 328 328 329
320 321 319 323 326 330 340 327 325 327 319 322 320 322 330 328 321 320 320 317 316 314 314 318 321 315 317 325 320 322 324 321 322 326 331 329 332 335 337 338 336 340 341 340 342 342 341 341 340 339 339 338 337 335 334 336 335 334 334 334 336 337 337 338 338 337 337 337 337 337 337 336 335 335 335 335 335 334 331 330 328 324 321 319 317 313 306 301 301 300 309 319 324 327 327 327 329
321 319 319 320 319 319 322 318 319 321 319 324 321 321 329 327 322 322 318 312 314 315 314 318 322 321 323 326 322 326 325 323 325 327 330 331 334 335 338 340 337 341 342 341 342 342 342 342 341 339 339 338 338 336 335 336 336 336 335 334 335 337 337 337 337 336 336 336 336 336 336 335 335 335 335 335 334 333 330 330 327 323 321 319 316 311 304 300 300 300 308 319 325 327 326 327 329
320 319 324 323 318 321 327 324 321 321 317 316 318 320 323 324 320 317 314 313 315 314 316 319 321 322 324 321 318 323 325 327 328 329 332 333 334 335 338 340 340 341 341 342 342 342 343 342 341 340 339 339 338 337 336 336 335 335 335 335 336 337 337 336 335 335 335 335 335 335 335 334 334 335 335 335 334 332 331 331 327 323 321 318 315 308 302 299 300 302 306 316 324 326 326 327 328
320 321 326 332 330 331 333 325 321 322 315 311 315 317 320 323 318 314 314 315 314 314 319 319 317 318 319 317 319 321 318 325 329 331 332 333 335 335 337 341 341 341 341 341 342 342 343 342 342 341 339 339 338 338 337 336 334 334 334 334 335 337 336 335 334 333 334 334 333 334 334 333 334 334 335 335 334 332 331 331 327 323 321 318 313 305 300 299 304 310 312 318 325 325 325 326 327
316 317 325 332 331 332 331 320 316 318 316 316 314 315 319 318 314 314 315 315 313 314 318 316 314 316 317 320 325 319 313 322 330 331 332 335 336 336 336 340 341 340 340 340 342 342 343 343 343 341 339 339 339 338 338 335 334 334 333 332 333 335 334 333 333 332 333 333 333 333 334 334 334 335 335 335 334 332 331 331 327 323 321 317 313 305 299 299 308 317 319 321 325 325 325 325 326
315 318 325 331 329 326 321 316 319 319 316 318 315 316 318 315 313 313 315 314 313 315 317 314 316 318 319 324 323 315 312 321 329 330 333 336 336 336 337 339 341 341 341 340 341 342 342 342 342 342 340 340 339 339 338 335 334 334 333 331 331 333 332 332 333 333 334 333 333 333 334 334 335 335 335 335 334 332 332 331 327 324 321 318 314 306 299 299 306 317 321 320 322 324 324 324 325
321 323 331 338 331 321 319 319 322 322 318 319 317 317 317 314 314 314 315 314 313 316 315 314 320 323 320 323 321 313 311 319 329 331 334 337 336 336 337 338 340 341 341 340 341 343 342 341 343 342 341 340 340 340 338 336 335 335 334 330 329 331 332 332 334 334 334 334 334 334 334 335 335 335 335 335 334 333 332 331 327 324 321 318 317 310 301 299 304 313 319 319 319 322 323 323 323
321 327 342 343 329 323 327 323 319 325 323 319 317 316 315 314 313 314 316 315 314 316 315 312 317 321 320 322 319 312 311 320 328 331 335 336 335 336 338 339 340 341 341 339 340 342 341 340 341 342 342 340 340 340 338 336 335 334 334 332 329 328 333 334 334 335 334 334 334 334 334 335 335 335 335 334 334 333 332 331 327 324 321 320 320 315 305 299 301 307 314 317 319 320 321 321 322
329 333 343 328 320 325 326 322 319 325 325 320 318 313 311 313 315 317 318 316 315 316 313 310 312 316 320 321 316 311 311 320 328 331 335 336 336 336 338 340 339 339 340 340 341 341 341 340 340 340 340 340 340 340 338 337 335 334 334 334 330 327 331 334 334 334 333 333 333 333 334 334 335 334 334 334 334 333 332 330 327 324 322 321 321 319 312 304 300 300 305 311 314 316 318 318 319
330 335 340 323 315 322 323 320 319 319 319 322 320 314 312 313 316 318 318 317 316 315 311 307 311 316 318 316 318 318 312 319 329 331 333 337 337 336 337 340 339 339 340 342 340 340 342 342 341 340 340 341 340 340 339 337 335 334 334 334 332 327 330 332 332 333 333 333 332 333 333 334 334 334 334 334 334 332 332 330 327 324 322 323 322 320 316 312 307 302 300 301 304 307 311 313 315
321 328 337 330 317 319 320 318 321 319 320 322 316 314 314 312 313 315 317 318 314 312 310 308 310 314 316 317 321 320 312 320 331 331 332 336 337 338 338 338 340 340 339 341 340 339 342 341 341 340 339 340 340 339 339 338 336 335 334 334 333 330 329 331 332 332 332 333 332 332 333 333 334 334 334 333 333 333 331 330 328 324 323 323 323 320 318 316 314 310 304 299 298 300 304 307 309
321 332 337 332 319 317 317 317 320 319 321 322 315 313 315 312 311 314 313 314 313 312 314 314 311 312 315 316 316 312 311 323 331 330 331 335 336 338 339 339 340 339 337 338 338 338 340 339 340 337 335 338 341 340 339 338 337 335 335 335 334 332 330 331 331 332 332 332 332 332 332 333 334 334 333 333 333 332 330 329 328 325 323 323 323 321 318 317 315 314 310 304 299 298 299 300 301
326 339 339 328 322 320 318 317 319 321 323 322 315 314 316 314 311 311 309 312 316 316 318 317 310 311 313 314 312 310 315 325 330 329 329 333 335 336 337 337 337 338 337 336 337 336 336 335 334 334 333 336 338 340 340 339 338 336 335 335 334 334 332 331 331 331 332 331 331 332 332 332 333 333 332 331 331 331 329 329 328 325 324 324 323 321 319 316 314 313 311 307 303 301 300 300 300
338 340 331 323 323 324 323 321 318 321 323 318 316 315 317 317 314 311 310 315 318 316 317 316 313 312 311 313 313 314 319 326 329 327 327 330 332 333 334 334 335 336 335 334 335 335 334 332 331 334 335 335 336 339 340 338 339 337 335 335 334 334 334 333 331 331 332 331 331 331 331 331 332 332 332 331 330 330 329 329 328 326 326 324 323 321 318 316 314 312 311 310 308 307 306 306 306
340 335 327 328 328 322 320 322 318 316 318 318 317 314 315 316 315 312 312 317 317 316 318 317 319 318 314 313 314 318 322 327 327 325 325 327 329 330 331 331 333 333 333 334 334 333 332 331 333 335 336 337 337 339 339 338 338 338 337 336 335 334 334 334 333 332 332 332 331 330 330 330 331 332 332 330 330 331 329 328 328 327 327 325 324 321 318 316 314 313 312 312 312 311 311 311 311
327 329 328 330 329 321 316 320 320 316 316 319 317 313 315 314 313 312 314 319 317 319 320 318 322 324 320 316 313 319 324 325 325 324 323 323 326 328 329 329 330 331 331 332 333 332 332 332 333 334 335 336 338 339 340 338 338 338 337 337 336 335 334 333 333 333 332 332 331 330 330 330 330 331 332 330 329 330 329 328 328 327 326 325 324 321 318 316 315 315 314 314 314 314 313 312 312
318 324 326 322 322 320 317 319 320 318 315 318 318 314 315 314 312 313 315 318 318 322 321 318 322 326 326 319 312 317 322 322 321 321 321 320 322 324 326 327 328 329 329 330 331 331 331 331 331 332 333 335 336 338 339 339 338 338 337 337 337 336 335 333 334 333 332 331 331 331 330 330 330 330 331 330 329 329 329 329 328 327 326 324 324 321 318 316 316 315 315 315 315 315 314 313 313
316 317 318 318 317 316 318 319 317 316 314 315 318 315 314 313 313 316 317 317 320 320 317 317 319 321 325 319 312 313 316 317 317 317 318 318 319 320 322 323 325 326 328 329 329 329 328 328 329 330 330 332 334 336 337 337 336 336 336 335 335 336 336 334 334 333 331 332 332 331 331 331 330 329 330 330 329 329 330 329 328 327 326 324 323 322 318 317 316 316 316 316 315 315 315 313 313
318 316 314 317 317 315 317 319 317 316 316 317 317 315 314 314 314 315 315 316 317 314 313 315 312 312 316 313 311 314 315 313 314 316 316 317 317 318 319 319 321 322 323 324 324 325 326 326 328 328 329 330 332 333 335 336 335 336 335 334 333 334 335 335 334 333 333 333 333 332 332 332 330 329 331 331 330 330 330 330 329 327 326 324 323 322 319 317 317 316 316 316 315 315 314 314 313
323 320 316 316 315 316 316 317 317 316 317 317 315 313 314 317 316 312 314 316 317 312 308 308 306 307 311 313 313 313 313 311 313 316 316 317 317 317 317 316 317 317 318 319 319 321 321 323 325 327 329 329 329 331 332 333 335 335 335 335 333 333 335 335 334 334 335 334 333 333 332 332 331 330 332 332 331 329 327 328 327 325 325 323 322 321 319 318 317 316 316 315 315 314 314 313 312
323 319 317 317 316 318 317 316 318 316 315 315 314 315 316 317 313 312 317 319 318 314 309 307 308 310 313 318 317 309 308 310 312 314 314 315 315 315 315 315 315 315 315 315 316 316 317 318 320 324 328 329 329 329 330 332 333 333 335 337 335 334 336 335 334 334 335 334 333 332 332 331 331 331 331 331 331 329 326 324 324 324 325 323 321 320 319 318 317 317 316 315 314 313 312 311 310
318 318 319 317 316 319 317 316 319 317 316 314 314 318 318 314 311 314 319 318 316 314 315 314 315 318 317 319 315 307 307 308 310 312 312 313 313 314 314 314 314 313 313 313 312 313 314 315 316 319 323 327 329 329 330 333 333 333 335 337 337 335 335 335 335 334 334 334 333 332 332 331 332 332 330 330 331 330 327 324 323 323 323 321 320 319 318 318 317 317 316 315 313 312 311 310 309
315 319 319 318 320 320 316 316 319 317 317 315 314 318 317 312 313 316 319 315 313 319 321 315 318 322 319 318 314 307 307 308 310 311 311 312 312 313 313 313 313 312 311 311 310 312 314 315 315 316 319 324 327 329 330 332 333 333 334 335 336 335 334 333 333 334 333 333 332 331 331 331 332 331 330 331 331 329 328 326 324 323 322 320 321 320 318 318 317 317 315 314 313 311 310 308 307
314 318 317 319 323 320 317 317 317 315 315 316 315 315 315 312 313 317 317 312 312 324 325 315 318 321 316 318 315 308 306 308 310 310 310 310 312 312 312 313 312 311 311 310 311 313 314 315 316 316 318 321 325 328 329 331 332 332 333 333 334 334 334 333 333 333 333 332 332 331 331 331 331 331 331 331 330 329 328 326 324 324 323 321 320 320 319 318 317 316 315 313 311 310 309 306 305
315 317 316 321 327 322 316 316 316 314 315 317 315 314 317 315 315 317 315 309 310 320 325 319 317 318 316 316 314 309 306 307 308 308 310 311 312 312 312 312 310 310 311 310 313 314 315 316 317 317 319 321 324 328 328 330 332 332 332 332 332 332 332 332 332 332 333 332 331 331 331 330 330 331 331 330 329 329 327 327 326 325 324 321 320 320 319 318 317 316 314 312 310 309 307 305 303
316 316 317 323 327 325 316 312 314 313 315 317 315 316 323 322 318 315 311 310 313 318 322 319 316 315 315 314 314 312 306 305 306 307 310 311 312 312 311 311 308 309 310 311 314 315 316 318 319 319 320 322 325 328 328 328 331 332 332 331 331 331 331 330 330 331 331 331 330 330 330 329 329 329 329 330 329 328 327 326 326 325 323 321 320 319 319 318 317 315 313 311 309 308 305 303 303
319 314 321 326 319 327 324 313 315 314 313 315 314 317 321 322 322 315 309 310 315 321 321 316 315 314 314 313 313 313 308 304 306 307 309 310 311 312 311 310 308 310 311 312 315 316 318 319 320 320 321 323 325 327 329 329 330 330 330 330 330 330 330 329 329 329 329 329 328 328 328 328 327 326 327 329 328 327 327 326 325 324 322 320 320 319 319 318 316 314 312 311 308 306 304 302 301
328 315 325 328 316 329 332 316 316 315 313 312 313 319 319 318 320 314 308 310 314 319 319 314 314 313 312 313 310 311 309 304 305 307 308 309 311 311 310 309 309 311 312 313 316 316 318 319 320 321 322 324 325 327 329 329 328 328 329 328 328 329 328 328 328 327 327 326 326 326 327 327 325 325 327 327 326 326 326 324 323 321 320 320 319 318 318 317 315 312 310 311 308 304 302 300 298
332 318 322 329 319 325 325 316 315 315 314 312 313 320 322 320 318 312 308 310 312 316 317 314 313 312 311 311 309 310 309 307 306 305 307 308 309 311 310 309 310 312 313 314 315 316 318 318 320 321 322 323 324 326 327 325 325 327 329 327 327 328 327 326 326 326 325 325 325 326 326 326 325 325 326 325 324 324 323 322 321 320 320 320 319 318 317 315 314 312 309 308 308 304 301 298 295
330 319 320 328 323 320 321 322 316 311 314 314 314 316 318 319 317 315 313 310 312 317 317 315 312 310 309 309 309 309 309 310 307 304 306 308 309 311 311 309 311 313 313 314 315 317 317 318 319 321 321 323 324 324 323 323 323 325 327 326 326 326 326 325 325 325 324 324 324 325 326 326 325 324 324 324 324 323 322 321 320 320 320 319 318 317 316 313 312 312 308 305 305 303 300 297 295
332 325 322 325 322 317 321 324 316 311 313 314 316 315 316 316 314 317 318 311 314 319 316 313 311 310 309 309 309 309 308 309 307 304 306 307 309 311 311 310 311 313 313 313 314 316 317 317 318 319 319 321 322 322 322 322 322 324 323 322 323 322 323 324 324 323 322 322 323 324 324 324 324 324 323 323 323 322 321 320 320 318 318 318 318 316 313 311 310 310 307 303 302 301 299 297 296
331 332 331 329 323 320 323 325 320 314 313 315 316 315 315 315 313 314 317 314 314 316 313 311 310 310 310 309 309 308 308 308 305 305 306 307 310 311 310 310 311 313 313 312 313 314 316 317 317 317 317 319 319 319 321 320 319 320 319 319 320 319 321 322 321 321 321 321 322 322 322 321 322 322 321 321 321 321 320 319 318 316 316 317 316 313 310 309 308 306 305 303 301 299 298 297 297
324 327 329 327 323 323 324 325 322 314 313 320 318 315 315 314 315 313 314 316 316 316 314 312 311 309 309 309 308 308 308 306 304 304 306 307 309 311 310 310 311 312 311 311 312 313 315 316 316 316 316 318 318 317 319 319 318 318 317 317 319 318 319 321 320 320 320 321 321 321 320 320 321 321 321 320 320 320 318 317 316 313 312 312 311 307 305 305 305 305 303 302 301 299 297 296 296
320 322 322 323 324 323 321 319 319 314 314 322 320 316 315 313 314 312 312 315 316 316 315 314 312 310 309 309 308 308 308 306 304 303 303 305 308 310 310 310 311 310 309 310 312 313 314 315 315 316 315 316 317 317 318 318 318 319 319 319 319 318 317 318 319 319 320 320 320 320 320 319 320 320 319 318 318 317 316 315 313 311 308 307 304 302 303 304 304 304 304 302 301 299 297 295 295
319 323 321 322 324 322 322 319 317 314 314 322 324 318 316 314 314 313 312 313 313 312 313 313 313 312 310 309 308 308 309 309 306 303 301 302 305 307 309 309 309 310 310 310 311 312 313 314 314 314 314 313 315 316 316 316 316 318 320 319 318 317 315 315 317 318 318 318 319 320 319 318 319 319 317 316 315 314 314 313 310 307 304 302 301 302 303 303 303 304 303 302 300 299 296 295 296
320 323 321 321 323 322 324 322 317 315 314 320 325 318 315 315 315 315 313 312 311 311 312 311 311 311 311 310 309 309 309 309 307 305 301 301 303 305 307 307 308 309 309 309 309 310 311 312 313 313 313 312 313 315 314 314 314 316 318 317 316 316 313 312 315 317 315 316 318 318 317 317 317 317 315 314 313 311 311 311 307 302 300 299 300 302 303 303 303 303 302 303 301 299 296 295 296
321 321 319 319 322 321 323 323 320 320 319 318 322 322 323 324 321 319 317 315 314 313 312 311 310 310 310 310 310 310 309 308 307 306 302 300 301 304 306 307 308 308 308 309 309 309 310 311 312 313 313 312 313 314 313 313 314 314 313 311 310 309 307 308 313 313 310 313 316 315 315 315 315 314 313 312 312 311 310 307 302 298 297 298 299 301 302 302 303 302 302 302 301 300 298 296 296
323 324 320 318 321 321 320 322 321 326 330 321 318 326 335 334 327 324 324 323 322 317 314 314 312 311 311 311 310 310 309 308 307 305 303 300 301 304 306 307 307 307 307 309 309 310 311 311 310 310 311 312 312 313 313 313 314 315 314 311 308 306 304 306 312 311 309 312 314 312 313 313 313 312 311 311 311 308 304 300 297 295 294 296 297 299 302 302 302 302 302 301 301 300 299 297 295
323 325 321 318 317 319 320 320 320 329 333 319 317 329 331 327 326 328 330 330 331 325 319 317 314 313 313 312 310 309 309 309 307 305 302 301 301 304 306 307 307 307 307 308 309 309 310 310 310 309 310 311 311 312 312 312 312 313 314 314 313 311 309 308 311 311 310 311 311 311 312 311 311 311 310 309 305 301 297 295 294 294 293 293 294 295 297 299 299 299 299 299 298 297 296 295 292
328 323 321 320 318 319 320 319 321 327 327 320 323 331 326 324 325 327 327 327 328 327 323 320 317 316 315 312 310 310 309 308 307 306 303 301 301 304 306 307 308 307 307 308 308 307 308 309 309 309 309 309 310 311 310 311 312 312 312 311 310 311 313 312 311 309 308 309 309 310 311 310 309 309 308 304 298 295 294 294 293 293 293 293 292 293 293 293 294 293 293 293 292 292 292 292 290
327 318 318 321 320 322 321 321 323 323 323 324 325 324 326 329 327 323 322 323 327 328 326 322 320 321 319 317 313 309 309 307 306 306 303 301 301 304 307 307 308 308 307 308 307 307 307 308 308 308 307 307 308 308 309 309 310 310 309 309 307 308 311 311 308 307 306 306 307 308 308 307 305 304 302 297 293 293 293 293 293 293 292 292 292 292 291 291 291 291 291 290 290 290 290 290 289
319 314 318 321 321 324 324 327 327 325 326 328 327 324 327 330 328 326 323 325 331 329 324 321 321 323 322 322 318 310 308 307 306 305 302 301 301 303 306 308 308 307 307 307 307 306 306 307 306 306 305 307 307 306 307 306 307 308 306 307 308 308 308 307 303 302 302 303 305 305 303 303 302 300 296 293 292 293 292 292 292 292 292 292 292 292 291 291 290 290 290 289 289 289 289 289 288
315 320 327 325 326 328 329 329 326 328 329 328 328 327 327 329 330 330 326 326 330 328 328 329 329 330 327 326 320 311 308 307 305 304 301 300 302 303 306 307 307 307 306 306 306 305 306 305 305 304 304 305 305 304 305 305 305 306 306 307 310 310 309 306 302 299 298 300 302 302 301 300 298 294 292 291 292 292 292 292 292 292 291 291 291 291 290 290 289 289 289 289 289 289 288 288 288
318 332 332 326 329 329 329 330 328 332 331 325 324 322 322 327 329 328 326 325 325 325 331 335 335 337 335 330 321 311 308 307 305 304 303 300 301 303 305 307 307 306 305 305 305 304 304 304 304 303 302 302 303 304 304 305 304 306 307 307 309 311 311 308 305 302 299 299 300 299 298 296 293 291 291 291 291 291 291 291 291 291 291 291 290 290 289 289 289 289 289 288 288 288 287 287 287
321 332 329 327 331 330 330 330 328 330 327 320 319 320 321 325 325 326 325 324 323 321 323 326 328 330 328 328 323 313 307 306 305 303 303 301 301 302 304 306 306 305 305 304 304 303 302 303 303 302 301 301 303 303 303 304 304 306 308 307 308 310 310 309 307 304 301 299 298 296 294 292 291 290 291 291 291 291 291 291 291 291 290 290 290 289 289 289 289 289 288 288 288 287 287 287 286
321 325 327 330 331 331 335 333 326 327 325 318 316 320 324 325 326 325 322 320 322 322 320 320 320 320 318 318 319 314 308 305 304 302 302 301 301 301 303 305 305 305 304 303 303 302 302 302 302 301 301 301 302 303 302 301 302 304 307 307 307 308 308 307 306 304 301 297 295 293 292 291 291 291 291 291 291 290 290 291 291 290 290 289 289 289 289 288 288 288 288 287 287 287 286 286 286
319 323 325 328 331 333 338 337 332 331 329 320 315 321 329 331 328 325 322 322 325 325 321 318 317 315 312 312 313 312 308 304 302 302 302 301 300 301 303 304 305 304 304 303 302 302 301 301 301 301 301 301 302 302 301 300 300 302 304 305 306 307 307 306 305 303 300 296 292 291 291 291 291 291 291 291 290 290 290 290 290 290 289 289 289 289 288 288 288 287 287 287 287 286 286 286 286
320 322 324 326 329 329 330 327 325 326 328 324 320 323 328 328 325 321 320 324 326 321 317 318 322 316 312 314 314 312 308 303 302 302 301 300 299 300 302 303 304 304 304 303 302 301 301 300 300 300 301 302 302 302 302 301 300 300 302 304 305 305 305 305 303 300 297 294 291 291 291 291 291 291 291 290 290 290 290 289 289 289 289 288 288 288 288 288 287 287 287 287 286 286 286 286 286
321 320 323 323 320 323 326 322 317 319 326 327 324 325 326 325 324 321 319 322 321 318 317 319 320 316 314 316 315 313 308 303 301 301 301 300 299 300 301 302 303 303 303 303 302 301 301 301 300 300 301 301 301 302 302 302 302 301 302 303 303 303 304 303 302 298 295 292 291 291 291 291 291 291 290 290 290 289 289 289 288 288 288 288 288 288 287 287 287 287 287 287 287 286 286 286 285
322 324 324 319 317 323 329 328 325 325 329 328 324 325 326 326 326 322 318 319 322 322 322 321 319 316 316 316 313 311 308 303 301 301 300 299 298 299 300 301 303 303 303 303 302 302 301 301 301 301 300 300 301 301 302 303 303 302 301 302 302 302 302 302 300 296 293 291 291 291 291 291 291 290 290 290 289 289 288 288 288 288 287 287 287 287 287 286 286 286 286 286 286 286 286 285 285
321 325 323 322 327 329 326 328 331 330 330 331 327 324 322 323 325 323 320 325 331 328 325 328 330 326 322 320 316 310 305 302 301 301 300 299 298 299 300 301 302 302 302 302 302 301 300 300 301 301 301 302 302 301 300 300 301 301 302 302 301 301 301 300 297 294 291 291 291 291 291 291 290 290 289 289 289 288 288 287 287 287 287 286 286 286 286 286 285 286 285 285 285 285 285 285 284
316 318 318 320 326 327 326 327 328 329 331 332 330 327 324 324 326 325 322 326 330 328 326 332 337 331 324 325 322 312 305 303 301 300 300 299 298 298 299 300 301 301 302 301 301 300 300 300 300 300 300 301 301 301 300 299 299 300 300 300 300 299 299 297 294 291 291 291 291 290 290 290 290 289 289 288 288 288 287 287 287 287 286 286 286 285 285 285 285 285 285 285 285 284 285 285 284
318 319 320 320 320 322 326 324 323 327 331 331 331 328 325 327 326 327 326 324 323 325 327 334 339 328 320 323 323 315 307 302 301 300 300 298 297 297 299 299 300 300 300 300 300 300 300 299 299 299 299 299 298 299 300 300 299 299 298 298 298 298 297 294 291 290 290 290 290 290 290 290 289 289 288 288 288 287 287 287 287 286 286 286 285 285 285 285 285 285 285 285 285 284 284 284 284
320 321 321 320 320 321 324 323 322 325 327 328 329 327 325 329 325 323 327 326 322 323 325 333 337 326 319 321 322 315 308 304 301 300 300 298 296 296 297 298 299 299 299 299 299 299 299 299 299 298 298 298 298 298 298 298 298 297 296 297 297 296 294 291 290 289 289 290 290 290 289 289 289 289 288 288 287 287 287 286 286 286 286 285 285 285 284 284 284 285 285 285 285 284 283 283 283
Wind_Speed
7 7 5 4 4 2 4 5 3 2 4 2 2 1 2 2 1 1 2 2 1 1 1 1 2 2 2 4 6 6 3 3 5 4 3 3 2 3 6 5 6 9 14 16 15 14 13 13 12 12 9 7 8 8 10 10 10 10 11 11 11 11 12 12 12 13 13 13 14 15 15 15 16 15 15 15 16 16 17 19 20 20 20 20 19 18 18 18 18 18 17 17 15 12 12 14 15
7 6 5 3 5 3 0 3 3 3 5 2 2 2 3 2 1 3 5 3 3 2 1 3 6 5 5 6 6 4 2 1 3 3 2 0 2 2 5 5 8 10 14 17 16 15 15 14 13 12 10 8 9 10 9 9 9 8 9 9 11 11 11 11 12 12 11 12 13 13 14 14 15 15 14 14 15 16 17 18 18 19 19 20 19 18 17 17 17 17 17 17 17 14 14 14 15
7 4 3 3 4 4 2 4 3 1 4 1 4 3 2 0 3 6 7 6 6 4 1 1 5 4 4 5 2 3 2 1 1 0 1 2 2 2 4 6 10 11 13 16 15 15 16 15 14 13 12 9 9 10 9 8 8 7 7 9 11 10 10 11 11 11 11 11 11 12 12 13 14 14 14 14 14 16 16 16 17 18 19 20 19 18 17 17 16 17 17 18 18 17 16 15 15
7 4 3 2 3 4 4 4 2 4 3 3 2 4 2 3 6 6 6 6 4 1 1 1 3 2 3 4 1 1 1 1 1 0 0 2 2 2 3 6 11 13 13 15 14 15 16 15 14 14 12 10 9 8 9 8 7 8 7 9 11 10 10 10 10 10 11 11 11 11 11 12 12 13 13 13 14 15 15 15 18 19 20 20 19 18 17 17 16 16 17 19 19 19 17 16 16
5 6 4 4 3 2 4 3 3 4 2 4 2 5 5 6 6 5 7 5 4 2 1 1 2 2 2 2 1 1 1 1 1 1 1 2 4 3 3 6 10 12 13 13 14 15 15 15 14 15 13 11 10 8 9 9 8 8 8 9 10 10 9 9 9 10 10 10 10 10 10 11 11 12 12 12 14 14 14 16 18 19 20 19 18 17 17 17 16 16 17 19 20 19 18 17 17
3 7 8 7 4 1 3 2 2 1 4 5 3 5 6 6 6 5 5 5 2 3 3 1 1 2 1 1 1 2 2 1 1 1 1 2 5 5 5 8 11 12 13 13 13 14 14 14 14 14 14 12 12 10 10 10 9 9 9 9 10 10 9 9 9 9 10 9 10 10 9 10 10 11 11 12 13 13 14 16 18 18 19 19 18 17 17 17 16 16 16 19 20 19 19 18 18
3 3 6 7 3 2 3 3 4 2 2 4 3 5 6 6 5 3 2 2 1 1 2 0 1 4 1 1 0 1 1 1 0 0 0 2 5 7 7 10 11 11 13 14 14 13 12 12 13 14 14 13 13 11 10 9 10 9 9 9 10 10 9 9 8 9 9 9 9 9 9 9 10 10 11 12 12 13 14 16 17 18 19 19 18 17 17 17 17 16 16 19 20 19 19 18 17
4 1 2 5 2 4 4 3 3 2 1 3 3 5 6 6 5 4 2 1 1 1 1 0 1 3 0 1 1 2 1 2 1 1 1 3 6 7 8 11 12 11 12 14 15 13 12 11 12 15 15 14 13 11 10 9 9 10 10 10 10 10 10 9 8 9 9 8 8 8 8 8 9 9 10 11 11 12 14 15 16 17 19 19 18 18 18 17 17 17 18 19 20 19 18 18 17
6 3 1 4 3 3 3 2 1 2 3 4 3 4 3 4 5 3 3 1 1 1 1 3 0 1 1 2 1 3 2 2 1 2 1 2 6 8 9 11 12 12 12 13 14 13 13 13 13 13 15 14 13 12 11 10 9 10 10 10 11 11 10 10 9 9 8 8 7 7 7 8 8 9 10 11 11 12 13 14 16 17 18 19 18 18 18 17 18 18 19 19 19 19 19 18 18
5 3 2 3 3 3 3 0 1 2 4 5 4 5 3 4 4 1 2 1 1 2 2 2 2 1 2 2 2 0 3 2 3 3 2 3 7 9 9 11 11 10 12 13 14 14 14 14 12 10 13 14 13 13 12 11 10 10 10 10 12 12 11 11 10 9 8 8 7 7 7 7 8 8 9 10 10 11 12 13 15 17 18 18 18 18 18 18 18 18 18 19 19 18 19 18 17
3 4 3 4 4 2 2 3 3 3 4 4 4 5 4 5 4 1 1 1 1 1 1 0 2 3 2 1 2 1 2 2 4 5 3 3 8 10 10 11 10 9 9 11 14 13 12 13 12 10 12 14 13 12 12 12 11 11 10 9 11 13 13 12 11 9 8 8 7 7 6 7 8 8 9 9 9 10 11 13 15 16 17 17 18 18 18 18 18 18 18 18 18 18 18 17 16
2 3 4 4 3 3 4 4 3 4 6 4 2 3 3 6 4 2 3 3 1 1 2 1 2 3 3 3 3 1 2 3 5 6 5 4 7 11 11 11 11 9 8 9 13 14 11 10 12 11 12 14 13 12 12 12 11 12 11 9 9 12 13 12 11 9 8 7 7 6 6 7 8 8 9 8 9 10 11 13 14 15 16 17 17 17 18 18 17 17 17 17 17 16 16 15 15
3 2 5 3 3 3 3 5 2 2 5 3 3 2 3 6 4 7 6 3 2 3 3 4 2 2 2 3 2 2 2 5 6 7 7 6 5 9 12 12 13 11 9 10 12 13 12 10 10 11 11 13 14 14 13 12 11 12 12 10 9 11 13 12 10 9 8 7 6 7 7 7 8 8 8 7 8 9 10 12 13 14 15 16 16 17 17 17 17 16 16 16 15 15 15 15 14
3 3 5 3 2 3 4 3 1 2 3 5 3 1 2 2 4 6 8 4 4 5 1 2 3 3 1 2 3 4 4 7 8 8 8 8 6 9 12 13 13 13 13 12 13 14 13 12 11 10 9 11 13 13 13 13 12 12 12 11 10 11 13 11 10 9 7 7 7 7 7 8 8 8 8 7 7 8 9 12 12 13 14 15 16 17 17 17 16 16 16 15 15 15 15 15 14
3 3 5 4 2 1 3 2 2 5 5 5 2 2 2 0 3 4 6 6 5 4 1 1 1 2 3 3 4 4 6 9 9 9 9 10 9 10 13 14 13 14 15 13 14 15 15 14 14 12 9 10 12 10 13 15 13 12 12 11 12 11 12 11 10 9 8 7 7 7 8 8 8 8 8 7 8 8 9 10 11 12 13 14 15 16 16 16 16 16 16 16 16 16 16 16 16
3 4 5 4 2 2 4 2 3 3 5 5 1 1 4 1 2 3 3 3 2 1 2 0 1 1 3 4 4 2 7 11 10 10 10 12 11 12 13 15 14 13 14 13 13 14 14 14 14 13 10 11 12 11 13 15 14 13 12 12 12 12 11 11 10 9 8 8 7 7 7 8 9 8 8 7 8 7 8 9 9 11 12 13 14 15 15 16 16 16 16 16 17 17 17 17 17
3 4 5 3 3 3 5 4 4 4 5 5 4 1 6 1 1 2 2 4 4 1 3 1 2 0 3 3 2 2 9 12 11 11 12 14 13 12 12 14 15 14 13 11 11 11 10 10 10 10 12 13 12 12 13 14 16 14 13 12 12 12 12 11 10 9 9 8 8 8 8 8 9 8 8 8 8 7 8 8 8 11 11 12 13 15 15 17 18 18 18 18 18 17 17 18 18
5 4 4 2 4 4 6 7 7 5 2 5 4 2 7 4 2 2 0 5 4 1 2 2 4 3 2 2 1 5 12 14 13 13 13 14 14 14 12 10 12 15 15 12 10 8 7 6 7 8 11 15 13 15 15 13 15 15 14 13 13 13 13 12 10 10 9 9 8 8 8 7 8 8 8 8 9 8 7 8 7 9 10 11 13 14 16 17 19 19 19 20 20 19 19 20 20
4 3 3 3 6 5 6 8 7 3 1 4 3 1 4 5 3 3 2 2 3 0 3 4 5 5 2 1 3 8 14 15 14 14 14 14 13 14 14 11 9 11 13 14 14 13 11 10 10 8 10 14 13 14 15 12 12 14 14 13 13 12 13 13 11 10 9 9 8 8 8 8 8 8 8 8 9 9 7 8 7 7 7 9 12 14 16 17 19 20 21 20 20 20 20 21 21
2 4 2 5 6 4 4 7 7 4 3 5 3 1 1 3 3 2 3 1 1 4 5 2 4 7 5 4 4 10 14 14 14 14 14 13 13 14 14 13 12 11 10 11 12 13 14 13 12 10 10 12 12 13 14 12 11 13 13 13 13 13 13 13 12 11 10 9 8 8 9 9 9 8 8 8 9 9 8 8 8 7 7 9 11 14 16 17 19 19 20 20 19 20 21 21 21
2 4 3 5 4 2 4 7 6 5 4 5 4 3 0 3 2 1 5 3 4 7 8 8 9 9 8 6 6 11 13 13 13 14 14 14 13 14 14 13 14 14 13 12 12 12 15 16 14 13 12 11 10 12 14 13 12 12 13 12 13 13 13 13 12 12 11 9 9 9 9 9 9 10 10 9 9 10 10 10 9 8 8 9 11 13 15 15 17 18 18 18 18 19 20 20 20
2 1 3 5 4 1 2 5 4 4 4 4 5 4 2 1 1 2 7 5 6 6 6 9 8 8 10 9 9 10 11 12 13 14 15 14 14 14 14 13 14 14 15 15 15 15 16 18 17 16 16 14 11 10 13 15 14 14 13 12 13 13 14 14 12 12 11 9 9 9 8 8 8 9 11 11 10 11 12 13 11 9 9 10 11 13 15 15 16 17 17 18 18 18 19 20 19
2 1 1 3 3 0 0 2 3 5 6 6 5 3 2 3 2 2 7 9 7 4 5 7 7 7 11 11 10 9 10 11 13 15 15 15 15 15 14 14 14 14 14 15 16 17 17 17 18 18 19 18 15 13 13 15 15 15 16 16 16 15 15 15 13 12 11 10 9 8 8 8 8 10 12 14 14 15 17 16 14 12 11 11 12 13 15 14 15 16 17 18 18 18 19 19 19
5 1 1 2 3 2 2 2 2 4 5 5 3 2 2 4 4 1 5 11 5 2 3 3 4 7 12 11 9 9 10 11 13 15 15 15 15 14 14 13 13 13 14 14 15 16 17 17 18 19 20 19 18 16 14 16 17 16 17 19 19 17 16 16 14 13 14 14 11 9 9 8 9 11 12 15 15 14 19 20 17 16 14 13 13 14 15 16 15 16 17 17 18 18 19 19 19
5 2 2 1 1 4 3 3 3 2 1 1 2 1 3 5 3 1 8 10 3 0 2 4 6 9 10 8 8 8 9 10 12 13 13 13 13 13 13 12 12 13 13 14 15 16 16 17 18 19 20 19 18 16 15 16 19 19 19 19 21 19 17 18 16 16 17 16 14 11 10 9 9 10 9 11 11 11 17 20 18 18 16 16 16 16 17 17 16 16 16 17 18 19 20 19 19
0 2 1 1 1 5 3 1 2 1 2 2 2 4 5 2 1 4 10 7 3 3 5 5 7 7 7 6 7 8 8 10 12 13 13 13 13 13 13 12 12 12 12 13 14 15 15 17 19 19 19 19 19 18 17 16 18 19 19 20 22 20 17 17 18 18 16 12 13 12 10 10 10 10 9 9 9 10 18 19 18 18 18 18 17 16 17 16 16 16 16 17 18 20 20 19 19
1 2 1 2 3 4 2 0 2 1 2 2 4 6 4 3 1 5 6 3 5 6 5 3 6 7 7 5 6 8 9 11 14 13 12 12 13 14 13 13 13 11 11 11 10 10 10 12 15 17 18 19 19 20 19 17 17 17 18 21 21 18 17 18 17 17 15 12 14 14 12 12 11 10 10 10 8 12 18 17 16 16 17 17 15 15 16 16 17 16 16 18 18 20 21 19 19
2 2 1 3 6 5 0 2 4 1 2 5 6 4 3 3 1 7 4 3 5 6 6 4 5 6 6 5 5 7 8 11 13 13 14 15 16 16 14 13 13 11 10 8 7 7 7 8 9 12 16 18 19 21 20 17 16 16 17 19 18 17 19 19 18 19 18 16 17 17 15 13 11 10 12 12 10 13 17 16 17 16 17 18 16 15 16 16 17 18 18 18 18 19 20 20 20
1 3 0 6 8 5 3 2 3 2 2 5 5 3 4 3 7 6 1 3 3 5 6 5 6 6 5 5 4 5 8 10 12 14 17 17 16 15 14 13 12 10 8 7 6 6 6 6 6 9 14 17 18 21 21 18 18 17 15 16 16 16 17 17 18 20 19 18 17 16 14 12 9 9 13 13 12 13 15 16 17 18 18 19 17 16 16 17 17 18 19 18 19 19 20 21 21
1 3 2 4 7 6 5 2 1 3 3 3 4 3 6 8 11 6 1 5 5 4 7 6 6 5 4 5 4 5 7 10 13 16 17 15 14 14 13 12 10 8 8 7 7 7 6 6 8 10 14 16 17 20 22 20 19 17 13 14 14 13 14 15 18 20 19 18 16 14 13 12 10 9 10 12 13 14 15 16 17 19 20 20 19 18 17 17 17 19 19 19 19 19 21 22 21
1 2 2 3 2 5 7 2 3 4 1 1 4 3 7 9 10 6 1 6 7 7 8 7 6 6 5 5 5 6 7 11 14 16 17 15 14 13 12 11 10 9 8 8 9 9 9 9 10 12 14 17 18 21 23 22 20 19 16 14 15 13 14 17 18 18 18 16 15 13 13 11 10 8 9 12 13 14 15 17 19 21 23 22 21 19 17 18 18 19 19 19 21 21 22 23 23
3 1 3 3 2 5 9 3 5 4 1 2 4 3 8 9 8 6 1 5 6 8 8 7 7 7 6 6 6 6 6 11 14 16 16 15 15 14 13 12 11 10 9 10 10 11 11 11 13 14 16 18 19 21 23 23 23 24 21 19 19 16 16 20 19 17 16 14 12 12 13 13 10 7 12 13 11 13 16 19 22 23 24 22 21 20 18 18 19 20 19 17 20 23 24 25 25
4 1 3 2 3 3 6 3 3 1 1 0 3 3 5 6 5 5 1 6 6 7 8 8 8 8 7 6 6 6 6 8 12 16 18 17 16 15 14 12 11 12 12 11 11 12 12 13 16 16 18 19 20 21 22 24 25 25 23 22 22 20 20 21 19 17 15 13 11 12 15 14 10 8 14 14 11 15 17 20 23 23 23 21 20 20 18 19 19 20 22 18 19 23 26 27 27
4 1 2 4 3 2 3 4 3 0 2 3 3 4 7 8 5 2 2 6 6 8 10 10 8 7 7 6 6 7 7 7 10 16 19 18 18 17 15 13 13 13 13 13 13 13 13 14 17 18 19 20 20 21 23 24 23 23 23 22 23 24 24 22 19 18 17 16 14 15 16 15 12 13 16 14 14 18 19 22 23 22 22 20 19 19 18 19 18 19 22 22 21 23 26 27 28
3 3 2 3 3 3 4 5 2 3 1 3 3 4 12 14 10 6 5 6 7 10 10 9 8 7 7 7 8 9 9 10 11 16 20 20 19 18 16 14 14 15 14 13 14 15 15 16 17 19 20 21 21 22 21 21 20 20 22 23 23 24 24 22 21 20 19 18 17 17 16 14 14 15 15 15 17 20 21 22 22 21 20 18 17 18 18 19 19 20 23 26 25 25 26 27 27
5 5 5 4 4 3 5 6 5 3 2 4 7 8 11 13 13 10 6 6 7 10 9 8 8 7 7 8 9 10 10 11 11 15 20 20 20 19 16 15 16 16 14 14 15 16 17 17 18 19 20 20 22 23 22 21 20 21 22 24 24 22 22 21 20 20 19 18 18 18 16 14 15 15 14 16 19 20 21 21 20 19 18 17 16 17 18 20 21 23 25 27 28 27 26 25 24
5 4 3 3 4 4 6 5 5 2 2 6 8 9 10 11 13 12 5 4 7 10 10 11 10 9 9 10 11 11 11 8 9 15 19 21 21 19 17 17 18 17 16 16 17 18 18 18 20 21 21 21 22 23 23 23 24 24 24 23 23 22 22 21 20 20 20 19 20 18 16 15 17 16 16 18 19 20 20 20 19 18 17 16 16 18 20 22 23 25 27 27 27 28 28 25 23
4 3 2 3 3 5 7 4 4 1 2 6 6 7 11 11 13 12 5 4 9 12 12 14 14 12 10 11 13 11 7 4 7 13 18 21 22 21 20 20 20 19 19 19 19 19 19 19 20 22 22 23 23 23 24 24 24 24 23 23 22 22 22 21 21 21 21 21 21 18 16 16 18 19 19 20 20 19 20 19 19 18 17 17 18 21 23 24 25 25 27 28 27 27 27 25 23
3 3 1 3 3 4 7 4 5 2 3 5 6 7 10 11 11 12 10 10 11 11 13 15 14 12 11 12 12 9 7 6 7 10 15 21 22 22 22 22 22 22 21 21 20 21 21 20 20 22 23 24 24 24 25 24 23 22 22 22 22 22 21 22 22 22 22 22 22 20 18 18 19 20 20 20 20 21 20 20 19 18 18 19 21 24 25 25 25 25 24 24 26 26 24 23 19
2 3 2 4 3 1 4 4 4 0 2 3 5 8 9 9 9 12 14 12 9 10 14 14 12 12 13 11 9 9 10 10 9 9 12 18 21 22 23 23 24 23 22 23 22 22 23 23 22 22 23 23 24 24 24 24 23 23 23 23 22 22 22 22 22 22 22 22 22 22 21 20 21 21 21 22 22 21 20 19 19 19 20 20 21 24 25 25 25 24 21 21 23 24 22 18 11
4 6 6 5 4 6 6 4 5 3 2 3 4 8 8 6 8 10 8 5 6 11 13 13 13 13 10 7 7 10 11 11 11 11 11 15 20 22 23 24 24 24 24 25 25 24 24 24 24 23 23 24 24 25 24 23 24 24 24 24 22 22 22 22 23 22 22 22 23 23 23 21 20 21 22 22 21 20 19 19 20 21 21 21 21 23 24 24 23 22 20 19 19 19 20 16 8
5 5 9 10 8 7 5 4 6 5 4 4 4 5 7 4 5 8 5 4 6 9 10 13 14 11 7 8 9 9 9 9 11 11 13 16 20 22 23 25 26 26 26 26 26 25 25 25 25 25 24 25 25 26 25 24 25 25 26 27 26 25 24 23 23 24 23 23 24 23 22 21 20 21 21 21 20 20 21 21 22 22 21 21 21 22 22 22 21 20 18 17 15 15 17 17 12
4 5 8 10 7 4 4 2 2 1 4 3 4 1 7 5 5 8 6 6 9 9 10 13 11 9 7 8 9 8 8 8 8 10 12 15 19 22 23 26 28 27 26 26 26 26 25 26 26 26 26 26 27 26 26 26 26 27 28 29 29 29 28 25 25 25 25 25 24 23 22 22 22 21 21 21 21 22 23 23 22 22 22 21 21 21 21 20 19 18 16 15 14 13 14 16 17
4 4 5 7 6 5 5 4 3 3 3 4 3 3 5 9 6 6 5 6 8 10 14 14 9 9 9 8 8 8 9 9 9 10 11 15 20 24 25 26 27 27 26 27 27 27 26 27 27 27 27 28 28 27 27 27 28 29 29 28 28 29 30 29 27 26 26 26 25 23 22 23 23 23 23 23 24 25 24 23 22 22 22 22 21 21 21 20 18 17 15 14 13 12 11 14 17
5 2 5 6 6 5 4 5 3 1 2 4 2 3 3 9 5 1 1 3 6 11 16 14 9 9 8 8 9 9 9 9 10 11 12 15 21 24 25 25 25 25 26 27 28 27 27 27 28 28 28 29 29 29 29 28 29 29 28 28 28 28 29 30 30 28 27 26 25 24 24 24 24 25 26 26 26 25 24 23 23 22 22 22 21 21 21 20 19 18 17 15 14 14 12 12 14
4 6 7 6 5 5 5 4 3 2 2 5 6 6 3 8 4 3 3 2 7 11 12 10 9 8 7 7 8 7 7 7 8 9 11 16 22 23 23 24 24 24 26 28 28 28 28 28 29 29 29 29 29 29 29 29 29 28 28 29 31 30 30 31 30 29 29 27 26 26 26 27 27 28 28 28 26 25 24 23 22 22 22 21 21 21 21 20 20 19 18 16 15 15 14 12 13
5 6 6 6 5 5 4 2 4 2 5 5 8 10 6 6 3 4 3 4 6 8 8 7 7 8 7 6 6 6 6 6 7 6 9 14 19 21 22 23 24 25 26 28 29 29 30 30 30 29 29 29 29 29 29 29 29 29 29 31 32 31 31 32 30 30 30 29 29 29 30 31 31 30 30 28 26 25 24 23 22 22 22 21 21 21 21 20 19 19 17 16 15 14 14 13 13
5 4 4 4 3 4 4 4 4 1 5 3 3 6 7 7 6 3 5 6 6 7 7 8 8 8 7 6 5 5 5 5 7 6 8 11 14 18 22 23 24 26 27 29 31 31 31 31 31 30 29 29 30 30 30 31 31 31 32 32 31 29 29 29 30 31 31 31 32 33 34 34 33 31 30 28 27 25 24 23 23 22 22 21 21 21 21 20 19 18 18 17 16 15 14 13 13
3 4 6 4 2 3 2 3 1 3 6 3 1 1 4 9 8 5 10 13 10 9 9 9 9 10 8 5 5 5 5 6 7 7 8 9 11 17 22 25 26 27 29 31 32 32 31 31 31 30 29 29 30 31 32 32 32 33 33 33 30 27 26 27 29 31 33 34 36 37 37 37 35 33 31 30 28 26 25 24 24 23 23 23 22 22 21 20 19 19 18 18 17 16 14 13 13
5 5 6 5 2 1 3 3 2 4 5 3 1 1 3 6 5 9 16 16 11 8 9 10 9 11 9 5 4 5 5 7 7 7 9 9 12 18 22 25 26 27 29 31 32 32 31 30 31 31 30 30 31 32 33 33 33 34 33 32 28 26 25 27 29 32 35 37 38 40 39 38 37 35 33 31 29 27 26 25 25 25 24 24 23 23 22 21 20 19 19 18 17 16 15 13 12
5 4 5 5 5 5 4 3 4 5 4 3 2 1 4 3 3 8 11 10 8 6 7 7 8 9 7 5 4 5 6 6 6 7 9 10 14 20 22 24 26 27 29 30 30 31 31 31 31 31 30 31 32 33 35 34 34 33 32 30 27 25 25 27 30 33 37 39 40 40 39 38 36 34 33 31 30 29 27 27 26 26 26 25 24 24 23 22 21 20 19 18 18 16 15 13 12
3 2 4 3 5 5 2 3 5 2 3 4 2 4 5 4 6 9 7 9 9 7 6 6 9 9 4 5 6 5 6 6 6 8 8 10 15 20 22 24 26 27 28 29 30 32 32 32 32 31 31 32 33 34 36 35 34 32 31 29 27 26 26 28 32 36 39 41 41 40 38 37 35 34 33 32 31 29 29 28 28 27 27 26 25 24 23 23 22 20 20 19 18 17 14 13 12
2 3 4 4 4 6 2 2 1 3 3 4 3 5 6 3 8 10 8 11 12 8 8 9 10 8 5 6 6 6 6 7 8 8 8 10 15 20 22 24 26 28 29 30 32 33 34 33 32 32 31 32 34 35 36 36 34 32 30 29 28 28 28 30 35 39 41 41 40 39 37 36 35 34 33 32 31 30 29 29 28 28 27 26 25 24 23 23 22 20 20 18 18 17 15 13 12
5 3 6 2 2 2 3 1 2 3 3 4 2 6 6 3 6 5 1 7 11 11 10 9 9 6 6 8 7 7 7 7 7 8 7 9 14 19 22 25 27 30 31 32 32 33 33 33 33 33 32 32 34 34 35 36 34 33 31 30 29 29 30 32 36 40 42 42 40 38 38 36 35 34 33 33 32 31 30 29 28 28 27 26 25 24 23 23 22 20 19 18 17 17 16 15 13
5 4 5 4 2 2 2 2 2 1 4 5 3 4 4 6 6 2 2 7 10 10 7 6 8 6 6 8 7 7 6 6 6 7 7 8 12 18 22 24 27 29 30 31 31 31 31 32 32 32 32 33 33 34 35 35 34 33 32 30 30 30 31 34 39 42 42 42 41 39 38 37 36 35 34 33 33 32 30 29 28 27 27 26 25 24 23 22 21 20 19 18 17 16 16 15 15
3 2 3 3 2 3 3 3 3 3 3 4 3 5 5 8 7 7 10 11 10 8 5 6 9 7 6 7 6 6 6 6 6 7 7 8 12 19 23 25 27 28 29 29 30 30 30 30 30 31 31 32 33 34 35 35 34 33 32 31 31 31 33 37 40 42 43 42 41 40 39 37 36 35 34 34 33 32 31 30 29 28 27 26 25 24 23 22 21 19 19 18 17 16 15 15 16
4 4 5 3 1 2 1 1 2 4 2 2 2 7 9 6 5 9 12 11 10 9 7 8 8 5 6 7 6 5 6 6 6 7 7 8 12 18 22 24 25 26 27 28 29 30 30 30 31 32 32 32 33 34 36 36 35 34 33 32 32 33 36 38 40 41 42 42 41 39 38 37 36 35 34 33 32 31 30 30 29 28 28 27 26 24 23 22 21 19 18 17 16 17 16 15 15
7 7 8 9 6 4 2 2 1 3 2 4 3 7 13 6 5 8 9 9 9 8 8 8 7 5 6 7 6 6 6 6 7 7 7 7 11 16 20 22 24 25 26 27 28 29 30 31 32 33 33 34 34 35 36 36 35 34 33 32 33 34 37 39 40 40 41 41 40 39 38 37 36 35 34 33 32 32 31 30 30 29 28 27 25 24 23 22 21 19 18 18 17 17 17 16 15
Wind_Direction
344 339 338 354 352 20 35 52 76 338 71 81 316 77 246 240 258 246 271 290 328 308 233 135 103 117 98 127 148 160 146 144 162 136 206 243 54 150 169 165 156 160 166 165 169 165 155 153 149 143 142 145 137 124 122 127 127 123 114 107 105 104 103 102 99 95 93 94 94 95 95 94 91 88 86 84 80 74 69 63 57 53 52 51 50 48 45 46 48 51 55 61 71 85 85 77 76
346 344 352 22 20 41 275 61 91 337 52 77 271 165 258 298 344 213 213 230 192 190 151 117 103 85 63 95 115 109 59 346 171 161 236 153 72 187 185 189 170 164 169 166 169 166 158 156 151 145 143 145 140 129 125 132 140 138 130 122 116 111 108 106 104 101 99 96 96 96 94 93 90 88 86 83 80 76 70 63 57 54 51 50 50 48 46 47 49 51 56 61 68 78 77 70 72
355 352 6 61 40 46 74 43 86 61 74 138 266 241 272 2 226 224 220 217 187 162 165 117 90 71 54 66 62 81 64 314 146 179 291 122 124 202 203 201 176 172 172 167 171 169 163 157 153 148 144 142 135 130 129 133 139 142 141 137 127 118 112 109 108 106 104 101 98 95 93 92 90 90 87 83 81 77 70 62 58 55 52 51 50 48 47 48 48 52 57 60 65 69 68 68 72
3 19 10 103 60 38 61 41 122 117 111 195 254 258 238 186 211 229 244 232 205 130 337 4 65 7 69 79 350 88 115 253 65 128 26 122 144 182 198 183 173 174 175 173 173 174 167 157 157 149 142 138 131 131 133 132 135 136 139 142 134 124 118 110 106 106 105 103 99 95 94 92 92 92 89 86 82 76 69 62 58 56 55 52 50 50 49 50 48 51 59 62 63 64 64 70 74
22 44 45 119 84 47 90 73 109 102 174 186 168 256 240 202 200 222 264 272 255 240 223 77 77 292 64 99 157 123 216 179 25 326 53 133 149 163 173 158 164 168 177 180 173 178 168 159 163 151 144 142 136 140 140 136 138 140 141 145 141 132 125 114 106 106 106 105 102 98 95 94 93 92 89 86 81 75 69 62 58 57 57 53 50 51 53 54 51 53 60 63 62 61 65 72 76
71 67 59 87 80 119 119 98 123 142 217 169 147 248 236 206 200 205 267 300 282 186 182 26 128 161 63 302 155 161 205 98 341 328 79 145 155 167 167 155 159 166 178 180 178 181 167 163 167 152 148 149 145 147 146 143 144 147 146 144 140 132 127 119 111 109 108 108 107 103 99 96 93 92 89 87 82 76 69 61 58 58 57 53 51 52 55 56 55 56 62 65 62 62 68 75 77
131 93 45 74 49 41 101 131 169 197 207 167 166 238 226 208 194 165 262 304 80 115 142 337 123 120 89 278 177 210 154 67 289 17 73 144 158 171 170 165 164 171 177 177 184 186 171 167 163 156 157 155 151 145 142 143 146 149 147 142 139 132 128 124 117 114 110 109 109 104 99 94 92 94 93 90 84 77 70 62 59 59 57 53 52 53 57 59 59 59 63 66 64 66 72 77 80
95 124 15 85 42 27 86 109 181 191 172 226 225 233 222 198 165 141 232 210 163 293 99 254 43 102 232 87 143 227 104 59 27 81 165 139 159 174 173 174 172 173 178 180 186 183 172 170 168 165 163 159 152 144 141 144 147 149 149 146 143 140 135 131 125 121 116 113 112 109 105 98 95 97 96 92 86 80 73 64 61 61 58 54 54 57 60 63 64 64 66 67 67 71 75 78 81
62 46 52 79 77 37 53 55 224 226 268 272 255 241 223 173 145 129 221 229 193 210 180 240 318 77 235 85 239 252 91 86 84 109 141 149 167 174 175 177 178 177 182 185 184 183 177 177 186 178 163 162 157 147 147 148 149 149 154 155 149 149 146 142 135 128 124 124 122 118 113 105 103 103 101 96 89 83 75 65 63 62 59 57 58 60 63 65 67 69 70 70 72 75 78 81 83
42 29 130 75 80 54 25 305 251 246 254 266 261 241 201 155 143 131 197 177 209 163 219 249 72 65 153 148 249 268 100 121 128 128 132 163 167 171 176 178 185 185 189 189 183 189 187 181 191 186 163 165 163 155 152 151 152 153 159 161 156 154 153 149 140 137 134 132 130 122 117 109 108 110 105 98 92 86 77 67 65 64 61 61 63 65 68 69 71 73 72 75 80 82 83 84 85
37 0 99 76 76 101 185 200 255 258 270 299 290 247 196 153 133 131 154 139 280 138 204 250 108 144 118 273 255 147 120 124 134 138 130 143 162 170 174 177 187 192 193 190 184 190 193 184 190 192 171 169 172 165 160 156 156 159 161 162 163 160 157 154 147 146 145 141 134 124 119 115 116 117 109 102 98 89 78 69 67 67 65 65 67 70 72 73 75 78 78 80 85 85 86 86 85
89 345 64 87 128 175 193 171 230 270 312 324 269 266 169 134 125 196 172 158 183 125 217 205 186 147 97 302 263 227 123 133 146 141 138 137 159 168 169 172 177 186 193 185 181 188 197 194 193 194 181 175 179 177 167 161 162 166 165 161 165 166 159 156 155 154 152 146 137 129 123 124 128 124 116 111 103 91 81 72 71 70 69 70 70 72 74 75 76 78 81 81 84 85 85 84 83
117 130 89 105 157 153 154 148 221 305 326 274 211 280 125 133 188 203 164 148 152 141 233 229 208 112 119 256 283 300 159 151 158 148 147 143 160 169 165 166 171 179 185 184 181 188 198 201 201 195 188 184 186 185 173 165 169 172 170 165 162 167 164 161 161 160 156 147 138 134 131 134 136 131 125 118 107 95 84 76 75 75 72 73 73 74 74 75 75 76 79 79 81 81 81 80 79
130 144 109 120 90 113 147 137 224 170 249 255 226 240 145 158 207 183 141 144 204 176 246 257 175 128 174 253 303 286 189 164 163 157 152 145 158 173 166 165 175 180 178 184 187 194 197 196 200 194 196 200 196 192 180 171 173 175 176 174 168 169 170 170 169 165 159 150 140 136 136 140 141 137 133 128 115 99 87 77 76 79 76 75 75 75 74 75 76 76 78 78 79 79 79 78 76
128 130 89 105 68 89 165 159 160 156 229 234 183 167 134 179 147 144 152 162 220 216 315 342 126 169 194 181 245 260 168 165 166 159 156 151 159 169 170 170 176 175 175 183 184 191 194 194 198 192 198 205 205 205 191 179 176 177 180 183 177 176 176 177 178 173 168 159 149 141 140 142 144 142 141 136 119 103 91 80 78 85 82 78 76 75 75 74 76 77 79 79 79 80 79 78 74
116 113 70 89 126 168 180 167 123 127 249 227 224 115 114 273 139 144 219 152 166 292 24 229 29 40 184 176 231 247 147 161 167 165 160 157 162 163 164 169 173 167 167 174 169 172 176 181 190 196 205 204 203 212 205 188 180 179 181 188 185 183 183 183 184 181 178 171 161 151 147 147 148 149 149 138 118 109 100 87 84 91 87 82 80 78 77 76 77 78 81 82 81 81 80 79 76
68 78 70 90 157 188 186 173 166 165 238 245 275 216 133 243 260 164 291 74 119 347 11 247 304 2 200 215 241 163 152 160 164 167 162 157 162 165 160 160 168 171 173 173 164 163 168 174 187 205 214 211 206 212 218 198 185 182 181 188 191 191 191 190 191 188 186 180 172 163 154 153 154 155 155 141 128 122 106 96 92 91 88 85 83 80 79 78 80 81 83 84 84 83 82 81 79
55 77 95 143 178 196 187 179 192 173 197 224 237 191 143 174 211 159 43 37 50 9 343 312 318 300 234 248 211 165 157 159 165 167 163 160 162 170 177 166 160 173 191 205 206 204 207 209 211 216 208 209 212 209 215 206 188 186 187 192 192 196 199 195 195 193 191 185 179 174 166 163 162 161 159 147 140 136 117 110 104 91 85 85 84 82 82 82 83 84 86 86 86 86 84 82 80
84 106 100 199 195 202 195 177 188 169 132 191 211 167 154 188 172 133 203 316 23 122 285 337 328 291 251 221 161 161 160 160 170 168 165 167 167 171 181 189 176 171 188 207 223 231 233 229 216 212 195 199 212 199 197 203 195 191 195 197 194 198 202 199 197 197 194 188 183 179 175 172 170 166 164 156 147 145 131 128 128 108 94 92 89 86 87 88 88 88 88 88 87 86 83 81 79
136 109 99 233 210 219 215 184 195 195 143 154 189 162 177 225 169 147 191 182 29 211 228 241 260 250 224 217 157 156 165 165 170 170 167 170 174 175 177 186 193 192 190 193 203 212 216 218 214 211 199 200 212 191 183 196 197 196 202 202 199 200 204 202 199 202 201 195 187 183 181 176 176 171 171 171 160 158 149 146 145 124 111 105 96 93 94 94 93 92 91 90 87 84 81 79 76
118 105 164 223 185 199 218 196 204 197 156 146 156 126 229 245 182 169 148 145 270 242 224 209 218 216 198 209 181 165 169 168 171 172 169 170 176 179 182 184 190 200 207 208 209 211 214 220 225 222 214 208 211 193 184 193 192 195 205 206 206 204 206 203 200 208 206 196 191 190 188 182 181 176 179 185 173 170 166 163 155 132 126 118 104 100 101 102 100 98 97 93 88 84 80 77 73
72 64 187 193 152 121 220 194 184 156 129 116 126 150 195 175 172 173 154 188 239 229 235 222 216 198 183 186 177 171 171 173 175 176 174 175 178 180 186 189 193 200 207 215 219 223 224 224 230 232 226 216 214 209 192 193 200 204 206 208 212 209 208 204 202 211 209 196 196 199 192 183 189 181 183 193 188 187 180 171 163 148 144 131 117 113 111 111 108 105 102 97 92 87 82 77 72
94 329 281 205 197 303 329 178 174 131 120 145 161 184 141 104 272 213 172 219 226 221 259 239 237 203 174 164 163 171 177 181 183 184 183 181 184 185 188 192 198 204 208 214 218 220 221 221 224 227 230 224 222 228 211 202 209 208 204 209 216 212 208 206 203 209 212 201 193 198 196 187 194 189 190 196 192 190 183 176 171 160 155 143 132 128 123 120 115 110 104 99 95 90 85 80 75
89 110 303 205 206 248 313 58 143 125 136 191 187 131 137 176 238 20 209 241 248 273 283 223 211 170 157 154 164 178 180 186 190 190 191 190 193 192 195 199 203 211 214 218 222 222 222 221 220 219 223 226 226 230 224 216 217 217 209 208 214 212 209 208 208 212 208 202 198 194 198 201 197 190 196 199 193 186 178 173 170 162 156 148 142 140 133 129 122 112 106 102 99 93 89 86 82
64 138 237 152 200 274 302 57 103 122 182 201 108 177 228 202 195 325 246 247 259 33 70 106 126 133 150 161 171 177 177 187 190 190 194 195 197 198 203 208 212 220 225 229 231 230 228 225 224 219 216 218 221 222 223 220 218 221 219 214 213 209 208 207 208 210 197 196 207 199 200 215 206 197 200 203 207 199 179 170 166 163 160 156 151 144 136 133 128 117 112 107 104 98 93 90 86
126 149 220 79 345 318 329 77 80 41 279 107 140 258 280 265 220 272 257 235 175 111 86 105 127 138 165 170 176 178 179 187 186 188 192 194 198 204 210 214 222 229 235 239 239 236 233 231 228 223 215 211 211 211 218 220 214 219 219 215 207 197 201 201 198 199 188 197 218 205 201 212 212 214 208 203 210 197 183 174 168 165 159 157 153 142 135 134 130 123 117 111 108 101 95 93 91
146 119 104 61 341 322 30 268 325 357 278 170 189 257 288 334 323 254 268 193 150 113 104 140 147 166 182 177 191 188 190 192 187 185 186 194 200 206 212 218 227 233 239 243 242 239 236 240 234 222 214 209 207 206 214 218 217 221 212 203 197 191 201 201 196 199 200 217 221 206 203 204 210 216 203 197 195 182 182 177 172 167 157 156 155 144 135 133 130 126 121 115 110 104 100 99 96
101 108 128 351 342 316 16 274 281 255 247 183 172 250 284 6 257 238 260 164 162 134 149 186 177 192 195 192 203 197 205 199 190 189 190 198 203 206 211 218 227 229 235 237 237 238 235 249 244 216 204 202 205 204 208 214 215 213 194 186 189 189 193 194 198 205 210 214 204 195 196 195 198 201 190 187 185 178 175 171 171 172 165 160 157 147 137 134 134 129 124 118 112 107 105 103 101
39 73 135 312 354 339 277 273 269 182 201 183 154 287 279 219 227 244 332 144 135 132 175 207 205 215 214 214 219 212 217 203 197 203 203 205 207 208 210 219 225 223 228 219 215 227 227 242 232 198 191 195 199 199 204 206 200 198 184 177 185 185 184 190 194 194 193 190 182 179 181 175 172 182 182 179 179 179 175 171 172 172 169 164 158 151 142 139 137 131 126 121 115 110 108 107 106
329 43 62 321 0 332 288 358 40 161 177 176 147 279 270 239 243 262 80 144 124 152 210 220 218 228 226 227 229 229 226 208 208 211 210 210 210 210 212 222 220 213 221 204 199 212 211 215 202 188 185 191 194 193 199 196 185 192 191 174 175 181 183 185 179 172 170 168 164 165 165 161 159 168 181 182 181 179 176 174 172 169 167 165 159 154 149 144 140 135 131 126 120 115 112 112 110
19 14 39 12 7 284 291 336 129 155 182 101 126 234 269 263 264 284 226 166 158 198 226 222 225 231 226 230 227 233 231 219 220 217 213 212 209 209 211 219 209 204 212 196 197 204 201 198 191 189 187 189 190 186 190 192 185 191 202 185 174 182 181 172 163 159 159 157 156 160 161 160 157 168 185 182 176 174 174 173 171 168 165 163 158 155 152 147 142 138 136 131 124 119 117 115 113
36 324 309 350 176 267 303 279 167 161 356 63 132 213 275 276 277 302 254 181 185 216 234 227 229 231 224 231 226 235 243 232 230 224 218 212 209 209 211 214 202 200 203 198 204 199 196 197 189 191 189 186 187 182 186 192 185 183 197 190 171 178 178 164 158 156 153 152 154 161 166 161 152 168 179 172 173 178 176 172 167 163 161 160 157 154 152 149 145 139 137 136 129 124 121 118 117
0 91 249 265 181 274 315 301 213 204 66 132 202 225 281 278 280 319 179 181 201 234 249 240 232 233 227 228 227 234 243 241 236 228 222 212 209 210 211 211 200 203 203 198 206 196 195 197 186 188 188 183 184 184 184 183 172 170 182 180 166 172 175 163 158 159 155 154 157 162 166 161 153 174 174 167 178 179 171 165 160 158 160 160 156 152 151 149 147 143 137 137 134 129 126 122 119
313 17 238 242 199 214 296 310 292 60 113 216 223 229 254 260 264 304 187 185 199 229 245 242 235 234 228 225 229 231 228 231 229 222 217 209 208 207 205 206 201 209 206 198 205 199 197 196 184 186 185 181 182 180 176 170 162 163 172 175 171 171 171 166 164 163 158 155 154 155 159 157 159 172 169 165 173 170 163 160 157 158 161 159 155 151 150 149 150 148 139 135 134 131 129 125 122
199 191 201 250 236 214 255 284 252 139 138 230 213 236 254 264 270 257 221 189 198 228 242 247 243 236 230 225 228 229 224 230 223 213 210 205 204 202 200 203 204 212 209 202 207 200 198 196 187 186 179 177 181 177 175 172 167 171 172 170 170 165 163 165 164 161 157 156 154 151 152 154 157 162 165 169 171 165 161 159 156 157 159 157 156 153 152 153 152 150 142 136 134 131 130 128 125
164 175 157 191 229 251 235 249 258 191 166 235 225 234 249 262 269 264 241 193 210 242 253 257 251 235 228 227 230 228 225 232 219 206 206 202 202 200 198 204 205 211 210 206 206 198 196 195 187 182 176 177 179 173 175 176 167 167 165 160 160 158 159 162 160 158 157 157 154 151 153 159 163 165 172 175 169 163 159 156 153 154 156 158 159 155 154 156 153 148 143 139 136 131 130 130 130
120 134 140 194 212 271 257 254 289 244 175 244 233 236 253 258 265 268 249 182 224 251 254 254 246 232 228 227 231 228 227 230 203 201 204 200 200 199 199 204 204 208 209 206 203 195 193 196 190 182 177 178 177 171 171 170 161 158 157 156 157 155 156 161 161 158 158 156 153 153 156 164 171 172 174 173 167 163 158 153 152 152 155 158 158 156 154 153 151 147 143 142 140 136 133 133 135
83 127 195 267 212 254 262 257 310 319 180 265 268 260 259 254 261 270 256 198 234 240 239 248 244 234 231 229 232 228 219 200 178 196 201 198 198 196 198 204 204 205 203 202 202 196 193 196 194 188 181 178 176 172 169 168 165 164 164 162 162 159 157 161 162 159 159 158 155 155 160 166 174 173 172 172 167 162 156 153 154 153 155 158 153 150 150 150 150 150 147 144 144 142 139 140 141
81 111 180 269 247 275 283 298 340 3 182 270 298 283 264 254 256 262 250 232 239 238 233 242 244 239 234 229 231 223 204 193 187 194 196 197 197 194 198 203 203 204 202 200 200 197 193 191 193 191 184 179 178 177 173 171 170 171 172 167 165 165 161 162 163 161 161 161 157 159 164 168 173 173 171 170 166 160 157 156 155 153 155 155 150 146 148 150 151 153 154 150 148 146 143 148 150
165 160 188 247 245 270 281 302 339 346 196 280 301 287 271 257 252 254 249 241 249 256 247 247 246 241 240 235 224 212 209 205 197 195 194 195 195 194 197 200 201 201 201 199 196 195 192 189 191 190 186 181 182 184 180 176 172 170 172 170 169 167 162 162 162 161 162 162 161 163 165 166 170 172 170 168 164 160 158 157 154 153 152 150 147 146 148 151 153 156 159 158 156 151 148 154 162
236 204 203 225 229 218 234 292 326 330 352 8 334 297 274 243 240 250 261 274 265 258 255 257 252 242 243 248 227 211 212 206 195 196 192 191 194 195 195 197 198 198 199 198 195 194 192 190 191 190 189 186 184 187 186 182 176 171 167 161 159 156 155 157 158 159 162 164 164 164 163 164 169 172 169 167 165 161 158 156 155 152 148 146 146 147 149 152 155 159 161 162 164 160 157 158 160
267 229 206 216 224 227 249 335 0 351 329 349 15 317 281 252 241 255 285 319 268 256 255 255 257 252 234 236 235 217 213 208 197 194 191 191 194 193 192 194 196 197 198 198 196 195 193 193 191 189 191 191 189 189 190 190 184 179 172 164 159 155 153 157 161 163 164 165 166 163 161 164 169 170 168 167 165 160 157 155 154 151 145 145 147 147 150 153 157 160 163 167 170 170 167 159 144
265 248 206 212 208 214 251 285 25 296 266 300 49 27 282 278 230 240 250 255 261 268 266 257 258 262 237 230 235 217 209 206 196 193 189 191 193 190 191 194 194 195 196 197 196 195 194 193 192 191 192 193 193 194 194 193 186 182 179 175 172 168 162 161 166 167 166 167 165 162 163 168 169 169 168 167 163 159 157 154 152 149 146 146 146 146 147 151 155 157 163 169 167 167 171 157 141
240 247 168 176 180 200 216 185 193 236 266 316 36 106 278 282 247 236 226 229 268 277 268 264 258 255 247 238 233 216 209 199 189 193 189 192 195 193 193 193 194 194 193 194 195 194 194 193 193 194 194 194 194 195 194 191 186 181 179 176 173 170 166 165 167 168 167 166 164 163 168 172 171 168 166 164 161 158 155 153 152 150 149 148 147 146 145 147 149 149 153 157 153 153 160 152 142
245 202 129 140 158 172 147 135 179 298 359 307 292 134 258 277 263 326 25 209 256 261 258 264 264 257 251 241 234 220 211 200 191 193 191 193 196 196 194 190 191 193 191 193 194 193 193 193 194 194 195 195 194 193 191 188 186 183 180 176 169 167 166 165 166 167 166 166 164 166 170 171 169 166 163 162 159 157 156 154 153 152 149 148 148 147 145 146 147 146 145 146 146 144 145 144 139
209 132 100 80 81 82 86 113 124 53 328 247 216 168 233 275 237 109 55 200 234 246 253 263 267 267 258 243 240 225 210 200 195 195 192 194 196 195 192 187 188 191 192 193 194 194 193 193 194 194 196 197 194 193 190 187 186 184 181 177 171 168 165 164 164 165 166 167 167 168 169 168 167 163 161 160 159 157 157 155 154 153 150 148 148 146 144 144 144 143 142 142 144 140 136 137 134
140 110 72 54 40 40 52 51 83 57 283 244 202 185 190 274 268 158 189 217 219 233 256 273 278 281 266 252 247 223 205 194 190 191 187 189 192 190 187 186 186 189 192 193 194 195 194 193 194 195 196 198 196 194 192 189 188 187 183 179 174 170 167 166 167 167 167 168 168 168 167 166 165 163 161 161 160 159 157 156 155 153 150 148 147 145 143 143 141 140 139 139 138 135 133 133 131
111 91 82 77 357 8 24 356 47 175 262 274 232 197 183 240 259 225 249 263 237 220 241 262 270 276 266 260 259 225 200 189 182 181 179 175 180 185 185 185 186 187 190 192 193 194 194 194 194 194 195 197 196 195 192 190 189 188 185 180 177 175 175 176 176 174 173 172 170 168 166 165 164 163 163 162 161 161 159 158 157 154 151 150 148 145 144 143 142 141 141 139 136 133 134 132 130
96 102 113 111 332 345 340 312 42 226 254 282 328 176 209 245 250 251 266 267 246 219 227 242 250 262 262 255 250 229 197 190 185 181 179 174 178 184 184 185 186 187 190 192 194 193 193 194 194 193 193 195 196 194 191 190 189 188 186 182 180 181 185 187 186 182 178 176 173 169 167 166 166 166 166 165 163 163 163 161 159 157 154 152 149 148 147 146 146 145 144 141 138 135 136 136 134
167 148 145 147 146 190 261 273 270 267 269 288 353 151 247 275 266 237 243 253 249 223 229 237 241 255 264 258 233 222 208 199 192 187 184 184 187 186 185 186 186 189 191 193 194 193 192 193 194 194 195 196 195 193 191 191 191 190 188 186 186 189 193 194 192 188 182 178 176 173 171 170 169 169 168 167 165 165 166 164 162 160 157 154 153 152 151 150 150 149 146 143 139 138 140 141 139
186 156 141 160 162 171 215 219 225 262 286 299 312 205 205 225 266 241 238 263 274 244 240 253 259 259 267 277 249 225 219 207 197 196 193 192 189 187 187 187 188 190 192 193 194 194 193 193 193 193 194 195 195 195 194 193 193 193 191 191 194 197 200 199 195 190 185 181 178 176 175 173 172 171 169 168 168 168 169 167 165 163 160 158 157 156 155 154 155 152 148 145 142 142 145 145 142
216 122 116 193 189 162 186 205 182 187 304 294 240 224 220 214 268 267 257 273 270 254 255 260 264 263 255 263 251 226 220 209 200 201 199 195 189 188 189 188 189 191 192 193 194 194 194 194 193 194 195 196 197 198 198 197 197 196 195 197 200 201 202 201 195 189 186 184 180 178 177 176 174 173 171 171 171 171 171 169 168 166 164 163 162 161 159 158 159 156 152 150 147 147 151 149 146
164 138 180 213 175 136 127 259 91 86 272 272 198 242 288 314 279 266 248 260 266 269 264 249 254 256 239 248 242 223 221 208 205 206 199 193 188 189 191 189 190 191 192 194 195 196 196 196 195 195 197 198 198 199 200 199 199 199 200 201 203 204 204 202 196 189 186 184 182 180 179 178 177 175 174 174 173 173 174 172 170 169 168 167 165 165 164 162 163 161 157 156 153 152 155 153 152
127 179 205 168 89 92 105 235 343 46 253 269 215 246 283 292 277 299 251 256 268 266 257 258 266 249 231 248 239 224 223 209 208 208 198 194 190 190 192 191 192 192 194 195 196 198 198 197 198 196 197 199 200 200 200 201 202 202 203 204 205 207 206 203 197 191 187 185 183 182 181 181 179 178 178 177 176 175 176 175 174 172 171 171 170 170 169 168 168 166 162 160 159 158 160 159 160
132 183 184 126 147 217 119 172 227 193 247 279 286 278 265 216 229 268 194 229 246 253 257 273 269 237 226 251 244 230 226 210 209 203 194 195 192 192 192 193 195 195 195 196 196 197 197 198 200 198 200 202 203 202 201 201 204 204 206 208 208 208 206 202 196 191 188 187 185 184 184 183 182 181 181 180 178 178 178 178 178 177 176 176 176 175 174 174 172 170 167 164 164 165 168 166 165
57 104 144 114 152 181 162 160 170 177 233 282 314 314 266 219 197 189 210 221 222 236 266 273 257 231 220 245 239 226 218 208 207 201 197 195 193 195 194 193 195 195 195 196 195 195 196 198 199 199 201 202 201 202 202 203 205 206 208 208 208 207 205 200 195 191 190 189 188 187 186 186 185 184 184 182 181 181 181 181 181 181 181 180 181 181 179 178 177 176 173 170 169 172 176 174 170
156 167 173 181 144 114 163 174 125 134 161 219 287 291 267 235 177 188 208 219 219 222 235 247 249 227 221 240 235 219 211 209 209 200 198 197 194 196 195 195 195 194 195 195 194 195 195 197 199 200 201 201 200 201 203 204 205 206 208 208 207 206 203 199 195 192 191 191 191 190 189 189 188 187 186 185 184 184 185 185 185 185 185 185 185 185 184 183 182 181 179 178 179 179 183 183 177
178 190 192 189 171 135 158 238 213 135 171 192 176 270 270 245 171 197 203 208 219 218 218 241 253 225 219 241 235 215 204 204 205 198 195 194 191 192 192 192 193 193 194 194 194 194 194 196 199 200 201 202 201 202 203 204 204 206 207 208 207 205 201 198 195 194 194 193 193 193 192 191 190 190 189 188 188 188 189 190 190 190 190 189 189 189 189 189 188 186 185 187 189 187 188 188 184